Location: ??????
(42.0089°N, 44.3281°E)
Time: 18:40:23
(UTC+00:00)

Cosmos 405 Rocket - Pass Details

Date: 24 October 2021
Orbit: 488 x 551 km, 81.3° (Epoch: 01 December)

Event Time Altitude Azimuth Distance (km) Brightness Sun altitude
Rises 15:08:30 0° 344° (NNW) 2,706 6.5 -12.0°
Reaches altitude 10° 15:10:42 10° 339° (NNW) 1,817 5.7 -12.4°
Maximum altitude 15:14:33 47° 265° (W) 730 4.0 -13.1°
Drops below altitude 10° 15:18:25 10° 191° (S) 1,821 5.7 -13.8°
Sets 15:20:38 0° 185° (S) 2,712 6.5 -14.2°
